Location: ?????????
(38.0736°N, 23.2119°E)
Time: 20:38:07
(UTC+00:00)

Cosmos 2227 Rocket - Visible Passes

Search period start: 18 July 2024 00:00
Search period end: 28 July 2024 00:00
Orbit: 839 x 844 km, 71.0° (Epoch: 17 July)

Date Brightness Start Highest point End Pass type
(mag) Time Alt. Az. Time Alt. Az. Time Alt. Az.
18 Jul 4.3 00:37:01 10° N 00:41:36 25° ENE 00:46:09 10° ESE visible
18 Jul 2.5 02:20:28 10° NW 02:25:48 45° WSW 02:31:07 10° S visible
19 Jul 4.4 00:21:54 10° N 00:26:24 24° NE 00:30:51 10° ESE visible
19 Jul 2.4 02:05:16 10° NW 02:10:39 47° WSW 02:16:01 10° S visible
20 Jul 4.4 00:06:49 10° N 00:11:12 22° NE 00:15:32 10° ESE visible
20 Jul 2.3 01:50:04 10° NNW 01:55:30 50° WSW 02:00:54 10° S visible
20 Jul 4.4 23:51:44 10° N 23:55:59 21° NE 00:00:12 10° ESE visible
21 Jul 2.3 01:34:51 10° NNW 01:40:20 54° WSW 01:45:29 12° S visible
21 Jul 4.4 23:36:39 10° N 23:40:46 20° NE 23:44:51 10° ESE visible
22 Jul 2.2 01:19:39 10° NNW 01:25:11 57° WSW 01:28:27 24° S visible
22 Jul 4.5 23:21:34 10° N 23:25:33 19° NE 23:29:30 10° E visible
23 Jul 2.2 01:04:27 10° NNW 01:10:01 61° WSW 01:11:58 39° S visible
23 Jul 4.5 23:06:30 10° N 23:10:20 18° NE 23:14:07 10° E visible
24 Jul 2.1 00:49:16 10° NNW 00:54:51 64° WSW 00:55:49 55° SSW visible
24 Jul 4.5 22:51:26 10° NNE 22:55:07 17° NE 22:58:10 12° E visible
25 Jul 2.0 00:34:05 10° NNW 00:39:41 68° WSW 00:39:54 68° SW visible
25 Jul 4.5 22:36:23 10° NNE 22:39:54 17° NE 22:42:25 13° E visible
26 Jul 2.1 00:18:53 10° NNW 00:24:09 70° WNW 00:24:09 70° WNW visible
26 Jul 4.5 22:21:20 10° NNE 22:24:41 16° NE 22:26:47 13° ENE visible
27 Jul 2.3 00:03:42 10° NNW 00:08:32 64° NW 00:08:32 64° NW visible
27 Jul 4.5 22:06:19 10° NNE 22:09:27 15° NE 22:11:16 13° ENE visible
27 Jul 2.5 23:48:31 10° NNW 23:53:00 58° NW 23:53:00 58° NW visible
